771  
ASUS43 KFSD 240810  
RWRFSD  
 
WEATHER ROUNDUP FOR SE SOUTH DAKOTA/SW MINNESOTA/NW IOWA  
NATIONAL WEATHER SERVICE SIOUX FALLS SD  
300 AM CDT TUE APR 24 2018  
 
NOTE: "FAIR" INDICATES FEW OR NO CLOUDS BELOW 12,000 FEET WITH NO  
SIGNIFICANT WEATHER AND OR S TO VISIBILITY
.  
 
 
SDZ038>040-050-052>070-240900-  
SOUTHEAST SOUTH DAKOTA  
 
CITY SKY/WX TMP DP RH WIND PRES REMARKS
 
BROOKINGS CLOUDY 49 41 74 NE3 30.15S  
CHAMBERLAIN CLOUDY 53 49 87 E6 30.12F  
HURON LGT RAIN 54 43 66 SW7 30.14R  
MADISON CLOUDY 50 46 87 S5 30.15S  
MITCHELL CLOUDY 52 43 71 S6 30.13S  
SIOUX FALLS CLOUDY 47 41 80 CALM 30.14S  
WINNER CLOUDY 48 42 80 W15 30.16R  
YANKTON CLOUDY 49 41 74 E3 30.14F  

 
 
MNZ071-072-080-081-089-090-097-098-240900-  
SOUTHWEST MINNESOTA  
 
CITY SKY/WX TMP DP RH WIND PRES REMARKS
 
FAIRMONT CLEAR 42 36 79 NW3 30.15F  
JACKSON CLEAR 41 36 81 CALM 30.15F  
LUVERNE CLOUDY 45 39 81 CALM 30.16R  
MARSHALL CLEAR 43 37 79 CALM 30.15S  
MONTEVIDEO CLEAR 45 36 70 CALM 30.15S  
PIPESTONE PTCLDY N/A N/A N/A CALM 30.15R  
REDWOOD FALLS CLEAR 47 41 80 CALM 30.13F  
TRACY CLEAR 47 39 73 SW7 30.14S  
WINDOM CLEAR 41 28 60 CALM 30.15F  
WORTHINGTON CLOUDY 42 38 85 SW3 30.16S  

 
 
IAZ001>003-012>014-020>022-031-032-NEZ013-014-SDZ071-240900-  
NORTHWEST IOWA  
 
CITY SKY/WX TMP DP RH WIND PRES REMARKS
 
CHEROKEE CLOUDY 41 40 95 CALM 30.15S  
DENISON CLEAR 45 39 81 NE3 30.15S  
ESTHERVILLE PTCLDY 39 37 92 NW6 30.14F  
LE MARS CLOUDY 45 39 81 N3 30.15S  
ORANGE CITY CLOUDY 48 41 76 E3 30.15S  
SHELDON CLOUDY 43 41 93 CALM 30.14S  
SIOUX CITY CLOUDY 47 41 80 CALM 30.15S  
SPENCER CLEAR 38 35 89 W3 30.14F  
STORM LAKE CLEAR 48 39 71 NE7 30.14F  

 
 
ABBREVIATIONS USED IN REMARKS  
TC - TEMPERATURE IN CELSIUS  
WCI - WIND CHILL INDEX  
HX - HEAT INDEX  
VSB - VISIBILITY  
 
 
 
CLICK HERE TO GO TO PREVIOUS BULLETINS.

The Nexlab SD Page
The Nexlab IA Page
The Nexlab MN Page
The Nexlab NE Page Main Text Page